Estación de Polizones INIA

Ultimos registro cada 15 minutos 79
Estación Fecha / Hora Temperatura Humedad Lluvia Velocidad Dirección Radiación Presion
79 Polizones INIA 04-05-2026 19:30 10,5 92,9 0 0 0 0 996
78 Polizones INIA 04-05-2026 19:15 10,6 91,9 0 0 0 0 996
77 Polizones INIA 04-05-2026 19:00 10,6 91,5 0 0 0 0 996
76 Polizones INIA 04-05-2026 18:45 10,5 92,2 0 0 0 0 996
75 Polizones INIA 04-05-2026 18:30 10,6 93,3 0 0 0 0 996
74 Polizones INIA 04-05-2026 18:15 10,8 92,5 0 0 0 0 996
73 Polizones INIA 04-05-2026 18:00 11 90,9 0 0 0 1 996
72 Polizones INIA 04-05-2026 17:45 11,3 88,4 0 0,1 19 5 996
71 Polizones INIA 04-05-2026 17:30 11,5 87,9 0 0 0 18 995
70 Polizones INIA 04-05-2026 17:15 11,6 88 0 0 346 33 995
69 Polizones INIA 04-05-2026 17:00 11,6 86,9 0 0,1 268 55 995
68 Polizones INIA 04-05-2026 16:45 11,7 87,1 0 0,3 281 72 995
67 Polizones INIA 04-05-2026 16:30 11,7 87,6 0 0,5 240 78 995
66 Polizones INIA 04-05-2026 16:15 12,1 85,5 0 1 238 73 995
65 Polizones INIA 04-05-2026 16:00 12,4 82,7 0 2 240 138 995
64 Polizones INIA 04-05-2026 15:45 12,4 82,5 0 1,7 251 273 995
63 Polizones INIA 04-05-2026 15:30 12,2 84,7 0 1,9 254 143 995
62 Polizones INIA 04-05-2026 15:15 12,4 83,6 0 1,9 238 194 995
61 Polizones INIA 04-05-2026 15:00 12,5 85,7 0 1,3 255 336 995
60 Polizones INIA 04-05-2026 14:45 12 87,3 0 0,8 286 178 995
59 Polizones INIA 04-05-2026 14:30 11,7 91,3 0 0,4 281 262 995
58 Polizones INIA 04-05-2026 14:15 11,2 94,2 0 0,7 290 160 995
57 Polizones INIA 04-05-2026 14:00 11,1 95,4 0,7 1,4 255 117 995
56 Polizones INIA 04-05-2026 13:45 11,3 94,4 0,7 0,6 8 112 995
55 Polizones INIA 04-05-2026 13:30 11,3 93,4 0,1 1,1 351 99 995
54 Polizones INIA 04-05-2026 13:15 11,6 91,9 0 0,4 326 67 995
53 Polizones INIA 04-05-2026 13:00 11,6 91,6 0 0,9 354 116 995
52 Polizones INIA 04-05-2026 12:45 11,5 91,5 0 1,6 352 158 995
51 Polizones INIA 04-05-2026 12:30 11,4 91,3 0 1,6 358 222 996
50 Polizones INIA 04-05-2026 12:15 11,2 93 0 1,2 347 223 996
49 Polizones INIA 04-05-2026 12:00 10,9 93,7 0 1,2 352 217 996
48 Polizones INIA 04-05-2026 11:45 10,5 94,6 0 1,2 358 168 996
47 Polizones INIA 04-05-2026 11:30 10,4 95,4 0 1,6 354 143 996
46 Polizones INIA 04-05-2026 11:15 10,3 94,9 0 1,3 341 151 995
45 Polizones INIA 04-05-2026 11:00 10,1 95,2 0 1,3 342 122 995
44 Polizones INIA 04-05-2026 10:45 9,9 95,2 0 1,2 332 86 995
43 Polizones INIA 04-05-2026 10:30 9,8 95,7 0 0,9 333 57 995
42 Polizones INIA 04-05-2026 10:15 9,7 95,7 0 0,6 336 78 996
41 Polizones INIA 04-05-2026 10:00 9,5 96,2 0 0,9 354 53 996
40 Polizones INIA 04-05-2026 09:45 9,5 96,2 0 0,8 5 48 996
39 Polizones INIA 04-05-2026 09:30 9,4 96,3 0 0,4 340 36 996
38 Polizones INIA 04-05-2026 09:15 9,2 96,6 0,1 0,8 347 41 996
37 Polizones INIA 04-05-2026 09:00 9,2 96,7 0,1 0,6 336 23 996
36 Polizones INIA 04-05-2026 08:45 9,1 96,8 0 0,3 344 10 996
35 Polizones INIA 04-05-2026 08:30 9,1 96,7 0 0,2 313 7 995
34 Polizones INIA 04-05-2026 08:15 9 96,9 0 0,6 337 5 995
33 Polizones INIA 04-05-2026 08:00 9 97 0 0,9 349 2 995
32 Polizones INIA 04-05-2026 07:45 8,9 97,2 0 0,9 355 0 995
31 Polizones INIA 04-05-2026 07:30 8,9 97,2 0 1 354 0 995
30 Polizones INIA 04-05-2026 07:15 8,8 97,4 0 0,6 356 0 995
29 Polizones INIA 04-05-2026 07:00 8,8 97,3 0 0,9 3 0 996
28 Polizones INIA 04-05-2026 06:45 8,8 97,4 0 0,4 353 0 996
27 Polizones INIA 04-05-2026 06:30 8,7 97,6 0 0,3 354 0 996
26 Polizones INIA 04-05-2026 06:15 8,7 97,5 0 0,1 348 0 996
25 Polizones INIA 04-05-2026 06:00 8,7 97,6 0 0 0 0 996
24 Polizones INIA 04-05-2026 05:45 8,7 97,6 0,3 0 0 0 996
23 Polizones INIA 04-05-2026 05:30 8,7 97,5 0 0 0 0 996
22 Polizones INIA 04-05-2026 05:15 8,7 97,5 0 0 0 0 996
21 Polizones INIA 04-05-2026 05:00 8,7 97,6 0,1 0,1 26 0 996
20 Polizones INIA 04-05-2026 04:45 8,6 97,7 0 0 0 0 996
19 Polizones INIA 04-05-2026 04:30 8,7 97,5 0 0 0 0 996
18 Polizones INIA 04-05-2026 04:15 8,8 97,6 0 0,1 328 0 996
17 Polizones INIA 04-05-2026 04:00 8,7 97,7 0,2 0 306 0 997
16 Polizones INIA 04-05-2026 03:45 8,7 97,7 0 0,2 0 0 997
15 Polizones INIA 04-05-2026 03:30 8,7 97,7 0 0,4 3 0 997
14 Polizones INIA 04-05-2026 03:15 8,7 97,8 0 0,4 19 0 997
13 Polizones INIA 04-05-2026 03:00 8,6 97,8 0 0 0 0 997
12 Polizones INIA 04-05-2026 02:45 8,5 97,9 0,1 0 0 0 997
11 Polizones INIA 04-05-2026 02:30 8,4 97,7 0 0 0 0 997
10 Polizones INIA 04-05-2026 02:15 8,4 97,8 0 0 0 0 997
9 Polizones INIA 04-05-2026 02:00 8,5 97,7 0 0 0 0 997
8 Polizones INIA 04-05-2026 01:45 8,3 97,9 0 0 0 0 998
7 Polizones INIA 04-05-2026 01:30 8,3 97,7 0 0 0 0 998
6 Polizones INIA 04-05-2026 01:15 8 97,6 0 0 0 0 998
5 Polizones INIA 04-05-2026 01:00 7,5 97,6 0 0 0 0 997
4 Polizones INIA 04-05-2026 00:45 7,7 97,2 0 0 0 0 998
3 Polizones INIA 04-05-2026 00:30 7,6 97,7 0 0 0 0 998
2 Polizones INIA 04-05-2026 00:15 8,1 96,6 0 0 0 0 998
1 Polizones INIA 04-05-2026 00:00 8,1 96,9 0 0 0 0 998